DLONG RJAA-RJKA

Flight info

Callsign DLONG
Flight time N/A
Altitude 36000
Route SAMUS Y84 HCE Y86 YULIA Y293 TONAR Y521 TUMGI
Aircraft A320/M-SDE3FGHIRWY/LB1

Departure

Time N/A
Airport Narita International Airport (RJAA)

Arrival

Time 2026-04-22 19:11
Airport Amami Airport (RJKA)
Time Latitude Longitude Altitude Speed Heading
2026-04-22 17:23 33.82962 140.21278 37085 ft 405 kts 216°
2026-04-22 17:24 33.80426 140.19786 37251 ft 405 kts 216°
2026-04-22 17:24 33.77939 140.18300 37405 ft 405 kts 217°
2026-04-22 17:24 33.75425 140.16786 37576 ft 405 kts 217°
2026-04-22 17:24 33.72911 140.15268 37733 ft 405 kts 217°
2026-04-22 17:25 33.70395 140.13753 37908 ft 404 kts 217°
2026-04-22 17:25 33.67871 140.12241 37975 ft 406 kts 217°
2026-04-22 17:25 33.62797 140.09231 37978 ft 407 kts 216°
2026-04-22 17:26 33.57703 140.06217 37982 ft 408 kts 216°
2026-04-22 17:26 33.52610 140.03199 37984 ft 408 kts 216°
2026-04-22 17:27 33.47513 140.00182 37982 ft 409 kts 216°
2026-04-22 17:27 33.42419 139.97155 37977 ft 409 kts 216°
2026-04-22 17:28 33.37317 139.94131 37976 ft 409 kts 216°
2026-04-22 17:28 33.32203 139.91113 37963 ft 410 kts 216°
2026-04-22 17:29 33.27086 139.88091 37965 ft 410 kts 216°
2026-04-22 17:29 33.21966 139.85072 37966 ft 411 kts 216°
2026-04-22 17:30 33.16842 139.82050 37964 ft 409 kts 218°
2026-04-22 17:30 33.14493 139.80236 37967 ft 397 kts 227°
2026-04-22 17:30 33.12521 139.77997 37963 ft 387 kts 237°
2026-04-22 17:31 33.09791 139.72689 37968 ft 374 kts 253°
2026-04-22 17:31 33.08134 139.66835 37969 ft 372 kts 255°
2026-04-22 17:32 33.06504 139.60961 37969 ft 373 kts 255°
2026-04-22 17:32 33.04879 139.55086 37973 ft 373 kts 255°
2026-04-22 17:33 33.03259 139.49202 37974 ft 374 kts 255°
2026-04-22 17:33 33.01631 139.43314 37973 ft 374 kts 255°
2026-04-22 17:34 32.99994 139.37419 37975 ft 375 kts 255°
2026-04-22 17:34 32.98350 139.31527 37976 ft 375 kts 255°
2026-04-22 17:35 32.96709 139.25636 37978 ft 375 kts 255°
2026-04-22 17:35 32.95064 139.19739 37978 ft 375 kts 255°
2026-04-22 17:36 32.93418 139.13842 37979 ft 375 kts 255°
2026-04-22 17:36 32.91764 139.07941 37991 ft 375 kts 255°
2026-04-22 17:37 32.90101 139.02041 37976 ft 376 kts 255°
2026-04-22 17:37 32.88448 138.96170 37975 ft 377 kts 255°
2026-04-22 17:38 32.86781 138.90251 37974 ft 378 kts 255°
2026-04-22 17:38 32.85105 138.84324 37973 ft 378 kts 255°
2026-04-22 17:39 32.83426 138.78403 37981 ft 378 kts 255°
2026-04-22 17:40 32.80908 138.69529 37980 ft 378 kts 255°
2026-04-22 17:40 32.79221 138.63610 37982 ft 378 kts 255°
2026-04-22 17:41 32.77535 138.57697 37981 ft 378 kts 255°
2026-04-22 17:41 32.75849 138.51790 37985 ft 378 kts 255°
2026-04-22 17:42 32.74161 138.45882 37986 ft 377 kts 255°
2026-04-22 17:42 32.72755 138.40977 37988 ft 377 kts 255°
2026-04-22 17:43 32.70786 138.34122 37988 ft 377 kts 255°
2026-04-22 17:43 32.69093 138.28226 37992 ft 377 kts 255°
2026-04-22 17:44 32.67399 138.22343 37992 ft 377 kts 255°
2026-04-22 17:44 32.65703 138.16463 37990 ft 376 kts 254°
2026-04-22 17:45 32.64000 138.10590 37989 ft 376 kts 254°
2026-04-22 17:45 32.62300 138.04728 37995 ft 376 kts 254°
2026-04-22 17:46 32.60597 137.98866 37990 ft 376 kts 254°
2026-04-22 17:46 32.58894 137.93015 37990 ft 375 kts 254°
2026-04-22 17:47 32.57188 137.87167 37989 ft 375 kts 254°
2026-04-22 17:47 32.55769 137.82312 37986 ft 375 kts 254°
2026-04-22 17:48 32.54061 137.76478 37988 ft 375 kts 254°
2026-04-22 17:48 32.52079 137.69699 37986 ft 374 kts 254°
2026-04-22 17:49 32.50644 137.64821 37985 ft 374 kts 254°
2026-04-22 17:49 32.48927 137.59003 37984 ft 374 kts 254°
2026-04-22 17:50 32.47204 137.53182 37983 ft 374 kts 254°
2026-04-22 17:50 32.45483 137.47372 37982 ft 374 kts 254°
2026-04-22 17:51 32.43763 137.41560 37984 ft 374 kts 254°
2026-04-22 17:51 32.42049 137.35791 37981 ft 374 kts 253°
2026-04-22 17:52 32.40322 137.29982 37978 ft 374 kts 253°
2026-04-22 17:52 32.38593 137.24170 37977 ft 374 kts 253°
2026-04-22 17:53 32.36858 137.18357 37972 ft 375 kts 253°
2026-04-22 17:53 32.35120 137.12549 37971 ft 375 kts 253°
2026-04-22 17:54 32.33375 137.06730 37966 ft 375 kts 253°
2026-04-22 17:54 32.31627 137.00918 37967 ft 375 kts 253°
2026-04-22 17:55 32.29878 136.95106 37966 ft 375 kts 253°
2026-04-22 17:55 32.28123 136.89298 37968 ft 375 kts 253°
2026-04-22 17:56 32.26371 136.83480 37970 ft 375 kts 253°
2026-04-22 17:56 32.24614 136.77671 37971 ft 375 kts 253°
2026-04-22 17:57 32.22870 136.71911 37971 ft 375 kts 253°
2026-04-22 17:57 32.21110 136.66114 37969 ft 375 kts 253°
2026-04-22 17:58 32.19351 136.60322 37965 ft 374 kts 253°
2026-04-22 17:58 32.17582 136.54539 37967 ft 374 kts 253°
2026-04-22 17:59 32.15820 136.48764 37968 ft 374 kts 253°
2026-04-22 17:59 32.14053 136.42995 37965 ft 374 kts 253°
2026-04-22 18:00 32.12588 136.38205 37965 ft 373 kts 253°
2026-04-22 18:00 32.10521 136.31472 37962 ft 373 kts 252°
2026-04-22 18:01 32.08747 136.25720 37958 ft 373 kts 252°
2026-04-22 18:01 32.06971 136.19967 37956 ft 373 kts 252°
2026-04-22 18:02 32.05194 136.14213 37957 ft 374 kts 252°
2026-04-22 18:02 32.03415 136.08454 37954 ft 374 kts 252°
2026-04-22 18:03 32.01628 136.02692 37947 ft 375 kts 252°
2026-04-22 18:03 31.99846 135.96965 37942 ft 375 kts 252°
2026-04-22 18:04 31.98050 135.91190 37942 ft 375 kts 252°
2026-04-22 18:04 31.96251 135.85417 37943 ft 376 kts 252°
2026-04-22 18:05 31.94448 135.79636 37936 ft 376 kts 252°
2026-04-22 18:05 31.92637 135.73849 37939 ft 377 kts 252°
2026-04-22 18:06 31.90819 135.68066 37932 ft 377 kts 252°
2026-04-22 18:06 31.89002 135.62276 37936 ft 377 kts 251°
2026-04-22 18:07 31.87183 135.56490 37938 ft 377 kts 251°
2026-04-22 18:07 31.85357 135.50708 37935 ft 377 kts 251°
2026-04-22 18:08 31.83544 135.44953 37933 ft 377 kts 251°
2026-04-22 18:08 31.81717 135.39167 37931 ft 377 kts 251°
2026-04-22 18:09 31.79882 135.33386 37931 ft 377 kts 251°
2026-04-22 18:09 31.78042 135.27608 37927 ft 377 kts 251°
2026-04-22 18:10 31.76201 135.21828 37928 ft 377 kts 251°
2026-04-22 18:10 31.74371 135.16051 37930 ft 377 kts 251°
2026-04-22 18:11 31.72526 135.10281 37924 ft 377 kts 251°
2026-04-22 18:11 31.70111 135.04789 37924 ft 381 kts 240°
2026-04-22 18:12 31.67199 134.99587 37922 ft 381 kts 240°
2026-04-22 18:12 31.64773 134.95260 37902 ft 382 kts 240°
2026-04-22 18:13 31.61354 134.89172 37900 ft 383 kts 240°
2026-04-22 18:13 31.58426 134.83947 37895 ft 384 kts 240°
2026-04-22 18:14 31.55490 134.78711 37886 ft 385 kts 240°
2026-04-22 18:14 31.52534 134.73467 37891 ft 386 kts 240°
2026-04-22 18:15 31.49583 134.68240 37879 ft 387 kts 240°
2026-04-22 18:15 31.46620 134.62975 37878 ft 388 kts 240°
2026-04-22 18:16 31.43641 134.57703 37875 ft 389 kts 240°
2026-04-22 18:16 31.40649 134.52422 37875 ft 389 kts 240°
2026-04-22 18:17 31.37659 134.47135 37872 ft 390 kts 240°
2026-04-22 18:17 31.34659 134.41847 37876 ft 390 kts 240°
2026-04-22 18:18 31.31657 134.36556 37875 ft 390 kts 240°
2026-04-22 18:18 31.28651 134.31269 37875 ft 391 kts 240°
2026-04-22 18:19 31.25641 134.25984 37879 ft 391 kts 240°
2026-04-22 18:19 31.22624 134.20702 37880 ft 391 kts 240°
2026-04-22 18:20 31.19606 134.15422 37887 ft 390 kts 240°
2026-04-22 18:20 31.16594 134.10150 37880 ft 390 kts 240°
2026-04-22 18:21 31.13599 134.04914 37880 ft 390 kts 240°
2026-04-22 18:21 31.10586 133.99649 37879 ft 390 kts 240°
2026-04-22 18:22 31.07571 133.94391 37879 ft 390 kts 240°
2026-04-22 18:22 31.04551 133.89140 37881 ft 390 kts 240°
2026-04-22 18:23 31.01528 133.83899 37879 ft 389 kts 240°
2026-04-22 18:23 30.98505 133.78663 37879 ft 389 kts 240°
2026-04-22 18:24 30.93982 133.70809 37874 ft 389 kts 240°
2026-04-22 18:25 30.89448 133.62974 37873 ft 389 kts 240°
2026-04-22 18:25 30.86417 133.57749 37864 ft 390 kts 240°
2026-04-22 18:26 30.81864 133.49894 37855 ft 391 kts 239°
2026-04-22 18:26 30.78814 133.44650 37852 ft 392 kts 239°
2026-04-22 18:27 30.75751 133.39395 37846 ft 393 kts 239°
2026-04-22 18:27 30.72684 133.34133 37844 ft 394 kts 239°
2026-04-22 18:28 30.69623 133.28893 37846 ft 395 kts 239°
2026-04-22 18:28 30.66542 133.23605 37845 ft 396 kts 239°
2026-04-22 18:29 30.63451 133.18308 37847 ft 396 kts 240°
2026-04-22 18:29 30.60350 133.13011 37851 ft 397 kts 240°
2026-04-22 18:30 30.55690 133.05077 37862 ft 396 kts 240°
2026-04-22 18:31 30.52580 132.99795 37869 ft 396 kts 240°
2026-04-22 18:31 30.49476 132.94526 37873 ft 395 kts 240°
2026-04-22 18:32 30.46897 132.90153 37875 ft 395 kts 240°
2026-04-22 18:32 30.43282 132.84015 37863 ft 394 kts 240°
2026-04-22 18:33 30.40192 132.78778 37865 ft 393 kts 240°
2026-04-22 18:33 30.37102 132.73556 37871 ft 393 kts 240°
2026-04-22 18:34 30.34016 132.68343 37861 ft 392 kts 240°
2026-04-22 18:34 30.30927 132.63138 37864 ft 392 kts 240°
2026-04-22 18:35 30.28358 132.58816 37862 ft 392 kts 240°
2026-04-22 18:35 30.25268 132.53622 37852 ft 392 kts 239°
2026-04-22 18:36 30.22179 132.48428 37851 ft 392 kts 240°
2026-04-22 18:36 30.19091 132.43245 37849 ft 392 kts 239°
2026-04-22 18:37 30.15989 132.38066 37852 ft 392 kts 239°
2026-04-22 18:37 30.12894 132.32892 37846 ft 391 kts 239°
2026-04-22 18:38 30.09803 132.27721 37846 ft 391 kts 240°
2026-04-22 18:38 30.06713 132.22562 37845 ft 391 kts 240°
2026-04-22 18:39 30.02076 132.14835 37845 ft 390 kts 240°
2026-04-22 18:39 29.99005 132.09723 37845 ft 389 kts 240°
2026-04-22 18:40 29.95920 132.04592 37850 ft 389 kts 240°
2026-04-22 18:40 29.92831 131.99469 37847 ft 389 kts 239°
2026-04-22 18:41 29.89744 131.94356 37853 ft 388 kts 239°
2026-04-22 18:41 29.86653 131.89252 37848 ft 388 kts 239°
2026-04-22 18:42 29.83566 131.84149 37844 ft 388 kts 239°
2026-04-22 18:42 29.80509 131.79037 37839 ft 387 kts 241°
2026-04-22 18:43 29.77627 131.73814 37835 ft 386 kts 242°
2026-04-22 18:43 29.74805 131.68552 37832 ft 386 kts 242°
2026-04-22 18:44 29.71950 131.63313 37832 ft 387 kts 242°
2026-04-22 18:44 29.69059 131.58092 37829 ft 387 kts 242°
2026-04-22 18:45 29.66162 131.52880 37825 ft 387 kts 242°
2026-04-22 18:45 29.63266 131.47664 37826 ft 387 kts 242°
2026-04-22 18:46 29.60391 131.42476 37823 ft 387 kts 242°
2026-04-22 18:46 29.57493 131.37254 37828 ft 388 kts 242°
2026-04-22 18:47 29.54595 131.32036 37826 ft 388 kts 242°
2026-04-22 18:47 29.51688 131.26807 37824 ft 388 kts 242°
2026-04-22 18:48 29.48777 131.21585 37823 ft 389 kts 242°
2026-04-22 18:48 29.45863 131.16361 37823 ft 389 kts 242°
2026-04-22 18:49 29.42939 131.11132 37448 ft 389 kts 242°
2026-04-22 18:49 29.41473 131.08504 35891 ft 395 kts 242°
2026-04-22 18:49 29.39977 131.05809 34208 ft 406 kts 241°
2026-04-22 18:50 29.38441 131.03048 32472 ft 415 kts 241°
2026-04-22 18:50 29.36892 131.00284 31590 ft 405 kts 240°
2026-04-22 18:50 29.35389 130.97623 30842 ft 393 kts 240°
2026-04-22 18:50 29.33897 130.94976 29894 ft 397 kts 240°
2026-04-22 18:51 29.32397 130.92305 28786 ft 401 kts 239°
2026-04-22 18:51 29.30886 130.89607 28025 ft 401 kts 239°
2026-04-22 18:51 29.29392 130.86943 27435 ft 396 kts 239°
2026-04-22 18:51 29.27906 130.84301 26786 ft 393 kts 239°
2026-04-22 18:52 29.26449 130.81716 26155 ft 390 kts 239°
2026-04-22 18:52 29.24981 130.79114 25516 ft 388 kts 239°
2026-04-22 18:52 29.23521 130.76526 24903 ft 386 kts 239°
2026-04-22 18:52 29.22070 130.73955 24284 ft 384 kts 239°
2026-04-22 18:53 29.20625 130.71391 23667 ft 382 kts 239°
2026-04-22 18:53 29.19188 130.68842 23005 ft 381 kts 239°
2026-04-22 18:53 29.17756 130.66304 22407 ft 377 kts 239°
2026-04-22 18:53 29.16337 130.63798 21853 ft 373 kts 239°
2026-04-22 18:54 29.14933 130.61316 21316 ft 370 kts 239°
2026-04-22 18:54 29.13533 130.58842 20801 ft 375 kts 239°
2026-04-22 18:54 29.12110 130.56330 20074 ft 378 kts 239°
2026-04-22 18:54 29.10672 130.53797 19494 ft 376 kts 239°
2026-04-22 18:55 29.09258 130.51316 19064 ft 370 kts 239°
2026-04-22 18:55 29.07864 130.48867 18571 ft 366 kts 239°
2026-04-22 18:55 29.06483 130.46435 18031 ft 364 kts 239°
2026-04-22 18:55 29.05114 130.44018 17441 ft 361 kts 239°
2026-04-22 18:56 29.03758 130.41628 16907 ft 356 kts 239°
2026-04-22 18:56 29.02415 130.39266 16365 ft 353 kts 239°
2026-04-22 18:56 29.01080 130.36928 15935 ft 350 kts 239°
2026-04-22 18:56 28.99754 130.34603 15811 ft 349 kts 239°
2026-04-22 18:57 28.98430 130.32276 15762 ft 349 kts 239°
2026-04-22 18:57 28.97109 130.29954 14685 ft 350 kts 239°
2026-04-22 18:57 28.95776 130.27614 13438 ft 351 kts 239°
2026-04-22 18:57 28.94475 130.25338 12839 ft 331 kts 239°
2026-04-22 18:58 28.93254 130.23210 12318 ft 311 kts 239°
2026-04-22 18:58 28.92097 130.21193 11786 ft 300 kts 239°
2026-04-22 18:58 28.90957 130.19202 11241 ft 299 kts 239°
2026-04-22 18:58 28.89827 130.17226 10705 ft 296 kts 239°
2026-04-22 18:59 28.88729 130.15310 10352 ft 277 kts 239°
2026-04-22 18:59 28.87707 130.13535 10040 ft 260 kts 240°
2026-04-22 18:59 28.86726 130.11827 9815 ft 256 kts 240°
2026-04-22 18:59 28.85759 130.10137 9672 ft 254 kts 240°
2026-04-22 19:00 28.84795 130.08449 9542 ft 254 kts 240°
2026-04-22 19:00 28.83832 130.06767 9407 ft 253 kts 239°
2026-04-22 19:00 28.82867 130.05084 9291 ft 254 kts 239°
2026-04-22 19:00 28.81902 130.03404 9156 ft 253 kts 239°
2026-04-22 19:01 28.80937 130.01722 8985 ft 250 kts 239°
2026-04-22 19:01 28.79994 130.00078 8319 ft 246 kts 239°
2026-04-22 19:01 28.79060 129.98453 7612 ft 244 kts 239°
2026-04-22 19:01 28.78133 129.96841 6929 ft 242 kts 239°
2026-04-22 19:02 28.77214 129.95245 6256 ft 240 kts 238°
2026-04-22 19:02 28.76304 129.93664 5527 ft 238 kts 238°
2026-04-22 19:02 28.75418 129.92130 5197 ft 220 kts 238°
2026-04-22 19:02 28.74619 129.90747 5071 ft 198 kts 238°
2026-04-22 19:03 28.73883 129.89478 4765 ft 188 kts 236°
2026-04-22 19:03 28.73012 129.88387 4321 ft 186 kts 223°
2026-04-22 19:03 28.71922 129.87586 3958 ft 187 kts 211°
2026-04-22 19:03 28.70762 129.86917 3683 ft 186 kts 212°
2026-04-22 19:04 28.69643 129.86266 3557 ft 176 kts 211°
2026-04-22 19:04 28.68574 129.85643 3442 ft 174 kts 212°
2026-04-22 19:04 28.67514 129.85024 3309 ft 168 kts 210°
2026-04-22 19:04 28.66486 129.84423 3148 ft 164 kts 211°
2026-04-22 19:05 28.65461 129.83822 3072 ft 167 kts 210°
2026-04-22 19:05 28.64426 129.83216 3006 ft 167 kts 210°
2026-04-22 19:05 28.63390 129.82611 3014 ft 167 kts 210°
2026-04-22 19:05 28.62358 129.82009 3048 ft 166 kts 210°
2026-04-22 19:06 28.61334 129.81411 3026 ft 165 kts 211°
2026-04-22 19:06 28.60315 129.80815 3010 ft 160 kts 211°
2026-04-22 19:06 28.59374 129.80269 2943 ft 145 kts 211°
2026-04-22 19:07 28.57606 129.79276 2413 ft 140 kts 208°
2026-04-22 19:07 28.56730 129.78793 2120 ft 139 kts 207°
2026-04-22 19:07 28.55858 129.78314 1831 ft 139 kts 207°
2026-04-22 19:07 28.54999 129.77840 1727 ft 137 kts 207°
2026-04-22 19:08 28.54137 129.77365 1708 ft 138 kts 207°
2026-04-22 19:08 28.53270 129.76887 1716 ft 138 kts 207°
2026-04-22 19:08 28.52412 129.76413 1703 ft 134 kts 207°
2026-04-22 19:08 28.51593 129.75961 1702 ft 132 kts 207°
2026-04-22 19:09 28.50771 129.75508 1552 ft 131 kts 207°
2026-04-22 19:09 28.49957 129.75059 1368 ft 130 kts 207°
2026-04-22 19:09 28.49409 129.74757 1243 ft 130 kts 207°
2026-04-22 19:09 28.48330 129.74163 1013 ft 129 kts 207°
2026-04-22 19:10 28.47540 129.73727 849 ft 124 kts 206°
2026-04-22 19:10 28.46770 129.73305 695 ft 122 kts 206°
2026-04-22 19:10 28.46012 129.72888 532 ft 120 kts 206°
2026-04-22 19:10 28.45257 129.72463 359 ft 121 kts 207°
2026-04-22 19:11 28.44505 129.72046 203 ft 119 kts 205°
2026-04-22 19:11 28.43763 129.71640 49 ft 117 kts 206°
2026-04-22 19:11 28.43116 129.71283 28 ft 80 kts 206°
2026-04-22 19:11 28.42774 129.71093 29 ft 25 kts 205°
2026-04-22 19:12 28.42676 129.71023 27 ft 12 kts 261°
2026-04-22 19:12 28.42702 129.70929 27 ft 15 kts 295°
2026-04-22 19:12 28.42735 129.70882 27 ft 8 kts 343°
2026-04-22 19:12 28.42791 129.70899 30 ft 9 kts 25°
2026-04-22 19:13 28.42848 129.70930 29 ft 9 kts 26°
2026-04-22 19:13 28.42906 129.70962 28 ft 9 kts 26°
2026-04-22 19:13 28.42965 129.70995 23 ft 10 kts 26°
2026-04-22 19:13 28.43025 129.71028 23 ft 10 kts 26°
2026-04-22 19:14 28.43073 129.71000 23 ft 9 kts 302°
2026-04-22 19:14 28.43096 129.70948 27 ft 5 kts 296°
2026-04-22 19:14 28.43117 129.70899 28 ft 3 kts 296°